Location: Unnamed
(48.6007°N, 2.4808°E)
Time: 22:55:19
(UTC+02:00)

CUTE 1.7 + AOD 2 - Pass Details

Date: 03 April 2023
Orbit: 582 x 600 km, 97.7° (Epoch: 31 May)

Event Time Altitude Azimuth Distance (km) Brightness Sun altitude
Rises 04:33:11 0° 26° (NNE) 2,856 ? -26.0°
Reaches altitude 10° 04:35:50 10° 42° (NE) 1,950 ? -25.6°
Maximum altitude 04:39:03 21° 92° (E) 1,374 ? -25.3°
Enters shadow 04:41:43 12° 136° (SE) 1,786 ? -24.9°
